Regional Weather Roundup
Issued by NWS

Home | Current Version | Previous Version | Text Only | Print | Product List | Glossary Off
Versions: 1 2 3 4 5 6 7 8 9 10 11 12 13 14 15 16 17 18 19 20 21 22 23 24 25 26 27 28 29 30 31 32 33 34 35 36 37 38 39 40 41 42 43 44 45 46 47 48 49

000
ASUS45 KSLC 250110
RWRUT

UTAH REGIONAL WEATHER ROUNDUP
NATIONAL WEATHER SERVICE SALT LAKE CITY UT
600 PM MST WED DEC 24 2014

UTZ001>011-023>025-250200-

NORTHERN UTAH

CITY           SKY/WX    TMP DP  RH WIND       PRES   REMARKS
BRIGHAM CITY   CLOUDY    36  25  63 N7        29.63F WCI  31
HILL AFB       CLOUDY    37  20  52 SE7       29.61F WCI  31
LOGAN          CLOUDY    33  26  75 NW7       29.64F WCI  27
OGDEN          CLOUDY    38  20  48 CALM      29.61F
PROVO AIRPORT  MOCLDY    36  23  60 CALM      29.69
SALT LAKE CITY CLOUDY    43  23  45 S8        29.61F
VERNAL         CLOUDY    28  14  55 CALM      29.81F
WENDOVER       CLOUDY    32  19  59 CALM      29.60F
HEBER CITY     CLOUDY    34  25  69 E5        29.67F WCI  30
WEST JORDAN    CLOUDY    39  25  56 SE25G32   29.62F WCI  28

$$

UTZ012>022-026-027-250200-

SOUTHERN/CENTRAL UTAH

CITY           SKY/WX    TMP DP  RH WIND       PRES   REMARKS
BLANDING       CLOUDY    30  18  60 CALM      29.99F
BRYCE CANYON   CLOUDY    29  15  56 S6        29.85F WCI  23
CEDAR CITY     CLOUDY    37  15  40 S9G22     29.77F WCI  30
DELTA          CLOUDY    42  24  48 S16       29.67F
MILFORD        CLOUDY    42  17  36 S29G39    29.71F
MOAB/CYNLANDS  CLEAR     32  19  58 NE5       29.88F WCI  27
PRICE          CLOUDY    28  11  48 E5        29.84F WCI  23
ST GEORGE      CLOUDY    43  18  36 CALM      29.87F
KANAB          CLOUDY    36  23  60 CALM      29.89F

$$

REGIONAL REPORTS     COLORADO/ARIZONA

CITY           SKY/WX    TMP DP  RH WIND       PRES   REMARKS
CRAIG, CO      CLOUDY    25  12  58 E3        29.77F
GRAND JUNCTION CLOUDY    28  22  78 CALM      29.88F
RIFLE          CLOUDY    27  17  66 CALM      29.89F
MONTROSE       CLOUDY    29  17  61 W5        29.89F WCI  24
CORTEZ         CLEAR     29  18  63 CALM      29.93F
PAGE, AZ       CLOUDY    40  15  36 CALM      29.89F
GRAND CANYON   CLOUDY    39  17  41 SW8       29.93F WCI  33
KINGMAN        CLOUDY    48  16  27 VRB3      29.89F
FLAGSTAFF      CLOUDY    37  13  37 SW10      29.97F WCI  30

$$

REGIONAL REPORTS    NEVADA/IDAHO/WYOMING

CITY           SKY/WX    TMP DP  RH WIND       PRES   REMARKS
LAS VEGAS, NV  CLOUDY    49  19  30 S8        29.80F
ELY            MOCLDY    39  23  52 S18G31    29.64F WCI  30
ELKO           CLOUDY    43  30  60 SW12      29.48F
POCATELLO, ID  CLOUDY    39  24  55 S20G30    29.50F WCI  29
EVANSTON, WY   CLOUDY    34  23  64 SW12      29.62F WCI  25
ROCK SPRINGS   CLOUDY    29  19  66 SE9       29.64F WCI  20
KEMMERER       CLOUDY    28  21  74 CALM      29.61F

$$


USA.gov is the U.S. government's official web portal to all federal, state and local government web resources and services.